Flight Information

DEPARTURE
SANTA MONICA, CA
Elevation:
169
Runways:
3/21 - 3500x150 - ASPH-G
H1 - 40x40 - ASPH-G
Active PE Departure:
21
Current PE ATIS:
W
Altimeter:
29.85
Remarks:
ATIS:
119.15 310-450-4620
Ground:
121.9
Tower:
120.1
DESTINATION
,
Elevation:
TPA:
1000 (est.)


6795.3 NM73° True-14° Var59° HDG

Flight Plan:
(click to file on line)

1. Type
2. Aircraft Identification
3. Aircraft Type / Special Equipment
4. True Airspeed
kts
5. Departure Airport
(ICAO code)
6. Arriving Airport
(ICAO code)
7. Cruising Altitude
ft
8. Alternate Airport
(ICAO code)
9. Route of Flight
10. Remarks


00:00:00 Departure ATIS: Destination ATIS:

Clearance Limit:
Route:
Altitude: Expect in minutes
Frequency:
Transponder: (7500 Hijack / 7600 Lost Comms / 7700 Emergency)


KSMO 110351Z AUTO 20004KT 10SM CLR 16/11 A2985 RMK AO2 SLP106 T01560106
Time: 2021-04-11T03:51:00Z
1618115814
Winds: 200 @ 4 kts
Visibility: 10.0 sm
Clouds (AGL): CLR
Temperature: 15.6 C
Dew Point: 10.6 C
Pressure: 29.84941 in Hgbr


Notes:

Data extracted from FAA Digital Chart Supplement. Effective: 0901Z Thursday, Feb 25, 2021 to 0901Z Thursday, APR 22, 2021
Current ATIS data is provided courtisy of PilotEdge.